Weather History for KUDG - May, 2013

Change the Weather History Date:

Thursday, May 9, 2013

  Actual Average (KFLO) Record (KFLO)
Temperature  
Mean Temperature 70 °F 69 °F  
Max Temperature 84 °F 81 °F 95 °F (1963)
Min Temperature 57 °F 57 °F 41 °F (1956)
Degree Days  
Heating Degree Days 0 1  
Month to date heating degree days 13  
Since 1 July heating degree days 2513  
Cooling Degree Days 6 5  
Month to date cooling degree days 41  
Year to date cooling degree days 137  
Growing Degree Days 20 (Base 50)    
Moisture  
Dew Point 54 °F    
Average Humidity 59    
Maximum Humidity 88    
Minimum Humidity 29    
Precipitation  
Precipitation 0.00 in 0.09 in 0.69 in (1978)
Month to date precipitation 0.80  
Year to date precipitation 12.90  
Sea Level Pressure  
Sea Level Pressure 30.06 in    
Wind  
Wind Speed 4 mph (WNW)    
Max Wind Speed 10 mph    
Max Gust Speed -    
Visibility 10 miles    
Events      
T = Trace of Precipitation, MM = Missing Value Source: NWS Daily Summary

Daily Weather History Graph

Daily Weather History Graph

Search for Another Location

Airport or City:

Trip Planner

Search our weather history database for the weather conditions in past years. The results will help you decide how hot, cold, wet, or windy it might be!

Date:

Astronomy

May. 09, 2013 Rise Set
Actual Time 6:21 AM EDT 8:10 PM EDT
Civil Twilight 5:54 AM EDT 8:38 PM EDT
Nautical Twilight 5:21 AM EDT 9:11 PM EDT
Astronomical Twilight 4:46 AM EDT 9:46 PM EDT
Moon 6:03 AM EDT (5/9) 8:04 PM EDT (5/9)
Length of Visible Light 14h 43m
Length of Day
13h 48m
Waning Crescent, 0% of the Moon is Illuminated
May 9
Waning Crescent
May 9
New
May 18
First Quarter
May 25
Full
May 31
Last Quarter

Hourly Weather History & Observations

Time (EDT) Temp. Heat Index Dew Point Humidity Pressure Visibility Wind Dir Wind Speed Gust Speed Precip Events Conditions
12:15 AM 64.4 °F - 57.2 °F 77% 30.02 in 10.0 mi SW 6.9 mph - N/A   Mostly Cloudy
12:35 AM 64.4 °F - 57.2 °F 77% 30.02 in 10.0 mi SW 8.1 mph - N/A   Partly Cloudy
12:55 AM 64.4 °F - 55.4 °F 73% 30.01 in 10.0 mi SW 8.1 mph - N/A   Scattered Clouds
1:15 AM 62.6 °F - 55.4 °F 77% 30.01 in 10.0 mi SW 8.1 mph - N/A   Mostly Cloudy
1:35 AM 62.6 °F - 55.4 °F 77% 30.01 in 10.0 mi SW 6.9 mph - N/A   Scattered Clouds
1:55 AM 62.6 °F - 55.4 °F 77% 30.00 in 10.0 mi SW 8.1 mph - N/A   Clear
2:15 AM 60.8 °F - 55.4 °F 82% 30.00 in 10.0 mi SW 5.8 mph - N/A   Partly Cloudy
2:35 AM 60.8 °F - 53.6 °F 77% 30.01 in 10.0 mi North 4.6 mph - N/A   Clear
2:55 AM 62.6 °F - 55.4 °F 77% 30.01 in 10.0 mi NNW 3.5 mph - N/A   Clear
3:15 AM 60.8 °F - 53.6 °F 77% 30.01 in 10.0 mi Calm Calm - N/A   Clear
3:35 AM 60.8 °F - 53.6 °F 77% 30.00 in 10.0 mi Calm Calm - N/A   Clear
3:55 AM 59.0 °F - 53.6 °F 82% 30.00 in 10.0 mi SW 4.6 mph - N/A   Clear
4:15 AM 57.2 °F - 53.6 °F 88% 30.00 in 10.0 mi SW 3.5 mph - N/A   Clear
4:35 AM 59.0 °F - 53.6 °F 82% 30.01 in 10.0 mi WSW 3.5 mph - N/A   Clear
4:55 AM 57.2 °F - 53.6 °F 88% 30.01 in 10.0 mi NW 4.6 mph - N/A   Clear
5:15 AM 60.8 °F - 53.6 °F 77% 30.02 in 10.0 mi NW 3.5 mph - N/A   Clear
5:35 AM 57.2 °F - 51.8 °F 82% 30.02 in 10.0 mi Calm Calm - N/A   Clear
5:55 AM 57.2 °F - 51.8 °F 82% 30.03 in 10.0 mi Calm Calm - N/A   Clear
6:15 AM 57.2 °F - 51.8 °F 82% 30.03 in 10.0 mi Calm Calm - N/A   Clear
6:35 AM 57.2 °F - 51.8 °F 82% 30.04 in 10.0 mi Calm Calm - N/A   Clear
6:55 AM 57.2 °F - 51.8 °F 82% 30.05 in 10.0 mi Calm Calm - N/A   Clear
7:15 AM 57.2 °F - 53.6 °F 88% 30.06 in 10.0 mi Calm Calm - N/A   Clear
7:35 AM 60.8 °F - 53.6 °F 77% 30.07 in 10.0 mi Calm Calm - N/A   Clear
7:55 AM 62.6 °F - 55.4 °F 77% 30.08 in 10.0 mi NW 3.5 mph - N/A   Clear
8:15 AM 64.4 °F - 57.2 °F 77% 30.08 in 9.0 mi Calm Calm - N/A   Clear
8:35 AM 66.2 °F - 57.2 °F 73% 30.08 in 10.0 mi NNW 3.5 mph - N/A   Clear
8:55 AM 69.8 °F - 57.2 °F 64% 30.08 in 10.0 mi North 4.6 mph - N/A   Clear
9:15 AM 69.8 °F - 57.2 °F 64% 30.09 in 10.0 mi NNE 4.6 mph - N/A   Clear
9:35 AM 71.6 °F - 57.2 °F 60% 30.09 in 10.0 mi North 4.6 mph - N/A   Clear
9:55 AM 73.4 °F - 55.4 °F 53% 30.09 in 10.0 mi NE 4.6 mph - N/A   Clear
10:15 AM 73.4 °F - 55.4 °F 53% 30.09 in 10.0 mi North 6.9 mph - N/A   Clear
10:35 AM 75.2 °F - 55.4 °F 50% 30.10 in 10.0 mi ENE 3.5 mph - N/A   Clear
10:55 AM 75.2 °F - 55.4 °F 50% 30.10 in 10.0 mi East 3.5 mph - N/A   Clear
11:35 AM 77.0 °F - 55.4 °F 47% 30.10 in 10.0 mi Calm Calm - N/A   Clear
11:55 AM 78.8 °F - 55.4 °F 44% 30.10 in 10.0 mi NNW 5.8 mph - N/A   Clear
12:15 PM 78.8 °F - 53.6 °F 42% 30.10 in 10.0 mi NNW 8.1 mph - N/A   Clear
12:35 PM 80.6 °F 80.3 °F 53.6 °F 39% 30.10 in 10.0 mi North 4.6 mph - N/A   Clear
1:15 PM 82.4 °F - 51.8 °F 35% 30.08 in 10.0 mi NW 4.6 mph - N/A   Clear
1:35 PM 80.6 °F - 51.8 °F 37% 30.08 in 10.0 mi WSW 4.6 mph - N/A   Clear
1:55 PM 80.6 °F - 50.0 °F 34% 30.08 in 10.0 mi NW 5.8 mph - N/A   Scattered Clouds
2:15 PM 82.4 °F - 51.8 °F 35% 30.08 in 10.0 mi SW 4.6 mph - N/A   Mostly Cloudy
2:35 PM 82.4 °F - 51.8 °F 35% 30.07 in 10.0 mi SW 8.1 mph - N/A   Mostly Cloudy
2:55 PM 82.4 °F - 51.8 °F 35% 30.07 in 5.0 mi NNW 5.8 mph - N/A   Mostly Cloudy
3:15 PM 82.4 °F - 51.8 °F 35% 30.07 in 10.0 mi NW 4.6 mph - N/A   Scattered Clouds
3:35 PM 84.2 °F - 51.8 °F 33% 30.06 in 10.0 mi WSW 10.4 mph - N/A   Mostly Cloudy
3:55 PM 82.4 °F - 50.0 °F 32% 30.06 in 10.0 mi Calm Calm - N/A   Mostly Cloudy
4:15 PM 84.2 °F - 51.8 °F 33% 30.05 in 10.0 mi WNW 5.8 mph - N/A   Mostly Cloudy
4:35 PM 84.2 °F - 51.8 °F 33% 30.05 in 10.0 mi NE 4.6 mph - N/A   Mostly Cloudy
4:55 PM 84.2 °F - 48.2 °F 29% 30.05 in 10.0 mi Calm Calm - N/A   Scattered Clouds
5:15 PM 82.4 °F - 50.0 °F 32% 30.05 in 10.0 mi WSW 5.8 mph - N/A   Partly Cloudy
5:35 PM 84.2 °F - 50.0 °F 30% 30.05 in 10.0 mi West 4.6 mph - N/A   Partly Cloudy
5:55 PM 84.2 °F - 50.0 °F 30% 30.05 in 10.0 mi West 3.5 mph - N/A   Partly Cloudy
6:15 PM 84.2 °F - 48.2 °F 29% 30.04 in 10.0 mi West 4.6 mph - N/A   Clear
6:35 PM 82.4 °F - 50.0 °F 32% 30.04 in 10.0 mi West 4.6 mph - N/A   Clear
6:55 PM 82.4 °F - 50.0 °F 32% 30.05 in 10.0 mi WSW 3.5 mph - N/A   Clear
7:15 PM 82.4 °F - 51.8 °F 35% 30.05 in 10.0 mi South 3.5 mph - N/A   Partly Cloudy
7:35 PM 82.4 °F - 51.8 °F 35% 30.05 in 10.0 mi Calm Calm - N/A   Scattered Clouds
7:55 PM 80.6 °F 80.5 °F 55.4 °F 42% 30.06 in 10.0 mi Calm Calm - N/A   Scattered Clouds
8:15 PM 78.8 °F - 57.2 °F 47% 30.06 in 10.0 mi Calm Calm - N/A   Mostly Cloudy
8:35 PM 75.2 °F - 59.0 °F 57% 30.07 in 10.0 mi Calm Calm - N/A   Partly Cloudy
8:55 PM 71.6 °F - 57.2 °F 60% 30.08 in 10.0 mi Calm Calm - N/A   Clear
9:15 PM 69.8 °F - 57.2 °F 64% 30.08 in 10.0 mi Calm Calm - N/A   Clear
9:55 PM 69.8 °F - 57.2 °F 64% 30.09 in 10.0 mi Calm Calm - N/A   Clear
10:15 PM 68.0 °F - 57.2 °F 68% 30.10 in 10.0 mi Calm Calm - N/A   Clear
10:35 PM 66.2 °F - 57.2 °F 73% 30.09 in 10.0 mi Calm Calm - N/A   Partly Cloudy
10:55 PM 66.2 °F - 57.2 °F 73% 30.09 in 10.0 mi Calm Calm - N/A   Mostly Cloudy
11:15 PM 66.2 °F - 57.2 °F 73% 30.09 in 10.0 mi Calm Calm - N/A   Mostly Cloudy
11:35 PM 66.2 °F - 57.2 °F 73% 30.09 in 10.0 mi Calm Calm - N/A   Partly Cloudy
11:55 PM 64.4 °F - 57.2 °F 77% 30.09 in 10.0 mi Calm Calm - N/A   Clear